Weather past 2 weeks in Bantam, Cocos Islands

Now
81 °F

Scattered showers. Passing clouds.


Feels Like: 84 °F
Forecast: 80 / 83 °F
Wind: 17 mph from Southeast

Location: Cocos Island Airport

Current Time: Jul 5, 2015 at 7:35:51 AM

Latest Report: Jul 5, 2015 at 7:00 AM


Visibility: N/A

Pressure: 29.95 "Hg

Humidity: 70%

Dew point: 70 °F

Location of BantamLocation

Historic Weather in Bantam — Graph

°F

Bantam temperature yesterday

Maximum temperature yesterday: 82 °F (at 12:00 PM)
Minimum temperature yesterday: 75 °F (at 1:00 AM)
Average temperature yesterday: 79 °F

Past Weeks' High & Low Weather Summary

 TemperatureHumidityPressure
High84 °F (Jun 20, 9:00 AM)94% (Jun 20, 6:30 AM)30.04 "Hg (Jun 20, 6:30 AM)
Low73 °F (Jun 20, 6:30 AM)62% (Jul 3, 11:00 AM)29.86 "Hg (Jun 20, 1:30 PM)
Average80 °F79%29.96 "Hg
* Reported Jun 20 6:30 AM — Jul 5 6:30 AM, Bantam, Weather by CustomWeather, © 2015

Note: Actual official high and low records may vary slightly from our data, if they occured in-between our weather recording intervals... More about our weather records

Advertising

Bantam weather history for previous 24 hours

 ConditionsComfort  
Time TempWeatherWind HumidityBarometerVisibility
6:30 AM
Sun, Jul 5
79 °FScattered showers. Passing clouds.16 mph79%29.92 "HgN/A
6:00 AM79 °FScattered showers. Passing clouds.17 mph74%29.92 "HgN/A
5:30 AM79 °FClear.16 mph79%29.92 "Hg10 mi
5:00 AM79 °FClear.20 mph74%29.92 "HgN/A
4:30 AM79 °FClear.20 mph74%29.92 "HgN/A
4:00 AM79 °FClear.17 mph79%29.92 "HgN/A
3:30 AM79 °FClear.17 mph70%29.92 "HgN/A
3:00 AM79 °FClear.17 mph79%29.92 "HgN/A
2:30 AM79 °FPassing clouds.17 mph79%29.95 "HgN/A
2:00 AM79 °FPassing clouds.18 mph79%29.95 "HgN/A
1:30 AM79 °FPassing clouds.18 mph74%29.95 "HgN/A
1:00 AM79 °FPassing clouds.17 mph74%29.95 "HgN/A
12:30 AM79 °FPassing clouds.17 mph74%29.98 "HgN/A
12:00 AM79 °FPartly cloudy.17 mph74%29.98 "HgN/A
11:30 PM
Sat, Jul 4
79 °FPassing clouds.18 mph74%29.98 "HgN/A
11:00 PM79 °FWarm.17 mph74%29.98 "HgN/A
10:30 PM81 °FPassing clouds.17 mph70%29.98 "HgN/A
10:00 PM81 °FClear.20 mph70%29.98 "HgN/A
9:30 PM81 °FClear.18 mph70%29.98 "HgN/A
9:00 PM81 °FClear.20 mph66%29.98 "HgN/A
8:30 PM81 °FPassing clouds.20 mph70%29.98 "HgN/A
8:00 PM81 °FPassing clouds.18 mph70%29.95 "HgN/A
7:30 PM81 °FPassing clouds.18 mph70%29.95 "HgN/A
7:00 PM81 °FClear.18 mph70%29.95 "HgN/A
6:30 PM81 °FScattered clouds.20 mph70%29.95 "HgN/A
6:00 PM81 °FScattered clouds.20 mph74%29.92 "HgN/A
5:30 PM81 °FScattered clouds.22 mph70%29.92 "HgN/A
5:00 PM81 °FMore clouds than sun.22 mph74%29.92 "HgN/A
4:30 PM81 °FScattered clouds.21 mph70%29.92 "HgN/A
4:00 PM81 °FScattered clouds.23 mph74%29.92 "HgN/A
3:30 PM82 °FPassing clouds.18 mph70%29.92 "HgN/A
3:00 PM82 °FScattered clouds.20 mph66%29.92 "HgN/A
2:30 PM82 °FScattered clouds.21 mph66%29.92 "HgN/A
2:00 PM82 °FScattered clouds.18 mph70%29.92 "HgN/A
1:30 PM82 °FScattered clouds.20 mph66%29.92 "HgN/A
1:00 PM82 °FPartly sunny.16 mph66%29.95 "HgN/A
12:30 PM82 °FPartly sunny.16 mph70%29.95 "HgN/A
12:00 PM82 °FScattered showers. Partly sunny.17 mph70%29.95 "HgN/A
11:30 AM81 °FScattered showers. Partly sunny.10 mph79%29.98 "HgN/A
11:00 AM79 °FCloudy.12 mph79%29.98 "HgN/A
10:33 AM77 °FCloudy.17 mph83%29.98 "HgN/A
10:00 AM77 °FRain showers. Partly sunny.15 mph89%29.98 "Hg5 mi
9:30 AM75 °FSprinkles. Partly sunny.21 mph89%29.98 "Hg5 mi
9:00 AM77 °FRain showers. Broken clouds.13 mph89%29.98 "Hg4 mi
8:30 AM79 °FScattered showers. Partly sunny.13 mph74%29.98 "HgN/A
8:00 AM77 °FDrizzle. Broken clouds.17 mph83%29.98 "HgN/A
7:30 AM75 °FLight rain. Partly sunny.17 mph94%29.95 "HgN/A
7:00 AM75 °FScattered showers. Partly cloudy.17 mph89%29.95 "HgN/A
Weather by CustomWeather, © 2015

See weather overviewHow to use our weather pages